FW1714 Weather Reports


Display with metric or nautical units.
time (UTC)temp
F
wind
direction
speed
MPH
gust
MPH
rain 1hr
in
rain 24hr
in
rain mn
in
humidity
%
barometer
mb
20230206194331 44 338 3.0 16.0 0.00 0.00 0.00 24 1022.9
20230206193848 44 349 3.0 16.0 0.00 0.00 0.00 25 1022.9
20230206193320 44 234 6.0 11.0 0.00 0.00 0.00 23 1022.8
20230206192837 44 10 4.0 10.0 0.00 0.00 0.00 24 1022.9
20230206192319 44 42 3.0 10.0 0.00 0.00 0.00 24 1022.9
20230206191816 43 331 3.0 11.0 0.00 0.00 0.00 23 1022.7
20230206191319 43 346 1.0 11.0 0.00 0.00 0.00 25 1022.8
20230206190816 42 360 3.0 12.0 0.00 0.00 0.00 24 1023.0
20230206190318 42 360 5.0 12.0 0.00 0.00 0.00 24 1023.0
20230206185816 42 360 5.0 12.0 0.00 0.00 0.00 24 1023.0
20230206185329 42 360 3.0 10.0 0.00 0.00 0.00 25 1023.0
20230206184846 43 306 4.0 10.0 0.00 0.00 0.00 24 1023.0
20230206184337 43 360 2.0 11.0 0.00 0.00 0.00 24 1022.9
20230206183834 43 290 3.0 11.0 0.00 0.00 0.00 24 1022.8
20230206183326 43 266 4.0 11.0 0.00 0.00 0.00 25 1022.9
20230206182824 42 315 5.0 12.0 0.00 0.00 0.00 25 1022.9
20230206182330 41 360 4.0 13.0 0.00 0.00 0.00 26 1022.9
20230206181827 41 360 7.0 18.0 0.00 0.00 0.00 26 1022.8
20230206181330 40 360 6.0 18.0 0.00 0.00 0.00 26 1022.9
20230206180827 41 360 5.0 15.0 0.00 0.00 0.00 26 1022.9
20230206180329 41 360 4.0 11.0 0.00 0.00 0.00 27 1023.0
20230206175828 40 360 5.0 13.0 0.00 0.00 0.00 27 1022.9
20230206175321 40 360 5.0 16.0 0.00 0.00 0.00 27 1022.7
20230206174818 40 360 4.0 16.0 0.00 0.00 0.00 29 1022.6
20230206174331 40 360 4.0 18.0 0.00 0.00 0.00 30 1022.6
20230206173828 39 360 6.0 18.0 0.00 0.00 0.00 30 1022.6
20230206173321 40 360 5.0 12.0 0.00 0.00 0.00 30 1022.7
20230206172839 40 360 2.0 12.0 0.00 0.00 0.00 30 1022.6
20230206172341 40 360 2.0 13.0 0.00 0.00 0.00 30 1022.6
20230206171837 40 360 4.0 19.0 0.00 0.00 0.00 29 1022.6
20230206171318 40 360 6.0 19.0 0.00 0.00 0.00 28 1022.4
20230206170820 41 360 5.0 14.0 0.00 0.00 0.00 27 1022.3
20230206170324 41 286 3.0 13.0 0.00 0.00 0.00 26 1022.2
20230206165820 41 350 4.0 14.0 0.00 0.00 0.00 28 1022.2
20230206165333 41 311 6.0 14.0 0.00 0.00 0.00 27 1022.0
20230206164831 41 306 2.0 12.0 0.00 0.00 0.00 28 1021.8
20230206164323 41 328 4.0 12.0 0.00 0.00 0.00 27 1021.9
20230206163820 40 314 1.0 11.0 0.00 0.00 0.00 28 1021.7
20230206163332 40 360 2.0 17.0 0.00 0.00 0.00 28 1021.6
20230206162830 40 360 8.0 17.0 0.00 0.00 0.00 27 1021.3
20230206162352 40 360 7.0 15.0 0.00 0.00 0.00 29 1021.4
20230206161828 40 282 6.0 16.0 0.00 0.00 0.00 31 1021.2
20230206161350 40 243 7.0 16.0 0.00 0.00 0.00 30 1021.3
20230206160826 39 303 2.0 11.0 0.00 0.00 0.00 29 1021.1
20230206160329 39 249 3.0 16.0 0.00 0.00 0.00 30 1021.0
20230206155826 39 360 8.0 17.0 0.00 0.00 0.00 31 1020.7
20230206155323 39 240 5.0 17.0 0.00 0.00 0.00 30 1020.6
20230206154821 38 360 4.0 10.0 0.00 0.00 0.00 30 1020.7
20230206154313 38 331 2.0 8.0 0.00 0.00 0.00 31 1020.6
20230206153830 38 229 2.0 10.0 0.00 0.00 0.00 32 1021.0
20230206153323 38 360 4.0 10.0 0.00 0.00 0.00 30 1020.8
20230206152821 38 188 2.0 6.0 0.00 0.00 0.00 31 1020.7
20230206152324 38 307 0.0 5.0 0.00 0.00 0.00 32 1020.5
20230206151840 38 360 2.0 6.0 0.00 0.00 0.00 32 1020.6
20230206151322 38 360 0.0 6.0 0.00 0.00 0.00 34 1020.4
20230206150820 37 128 0.0 5.0 0.00 0.00 0.00 38 1020.3
20230206150319 37 196 2.0 5.0 0.00 0.00 0.00 43 1020.3
20230206145815 36 360 0.0 0.0 0.00 0.00 0.00 42 1020.2
20230206145330 36 204 0.0 2.0 0.00 0.00 0.00 44 1020.2
20230206144828 36 204 0.0 2.0 0.00 0.00 0.00 45 1020.2
20230206144321 36 360 0.0 1.0 0.00 0.00 0.00 43 1020.0
20230206143817 37 179 0.0 0.0 0.00 0.00 0.00 41 1019.9
20230206143330 37 360 0.0 2.0 0.00 0.00 0.00 40 1019.6
20230206142827 38 360 0.0 2.0 0.00 0.00 0.00 38 1019.5
20230206142330 38 360 0.0 1.0 0.00 0.00 0.00 36 1019.5
20230206141826 38 360 0.0 1.0 0.00 0.00 0.00 34 1019.3
20230206141329 39 180 0.0 6.0 0.00 0.00 0.00 33 1019.4
20230206140824 39 179 0.0 6.0 0.00 0.00 0.00 34 1019.3
20230206140326 39 205 2.0 11.0 0.00 0.00 0.00 31 1019.2
20230206135844 40 286 1.0 11.0 0.00 0.00 0.00 30 1019.1
20230206135315 40 304 3.0 11.0 0.00 0.00 0.00 29 1019.2
20230206134853 40 338 3.0 11.0 0.00 0.00 0.00 29 1019.1
20230206134324 40 320 1.0 10.0 0.00 0.00 0.00 29 1019.0
20230206133824 40 184 1.0 15.0 0.00 0.00 0.00 29 1019.0
20230206133317 40 237 5.0 15.0 0.00 0.00 0.00 29 1019.0
20230206132815 40 252 3.0 11.0 0.00 0.00 0.00 30 1018.8
20230206132318 40 300 0.0 8.0 0.00 0.00 0.00 31 1018.7
20230206131835 40 300 0.0 8.0 0.00 0.00 0.00 31 1018.7
20230206131317 40 260 1.0 8.0 0.00 0.00 0.00 31 1018.7
20230206130832 40 145 2.0 18.0 0.00 0.00 0.00 30 1018.5
20230206130315 40 283 4.0 19.0 0.00 0.00 0.00 31 1018.5
20230206125852 41 325 4.0 19.0 0.00 0.00 0.00 30 1018.4
20230206125324 40 257 4.0 9.0 0.00 0.00 0.00 31 1018.3
20230206124841 40 236 3.0 9.0 0.00 0.00 0.00 35 1018.2
20230206124331 40 300 3.0 7.0 0.00 0.00 0.00 35 1018.0
20230206123828 40 236 2.0 8.0 0.00 0.00 0.00 35 1018.0
20230206123321 40 271 3.0 10.0 0.00 0.00 0.00 35 1017.8
20230206122818 40 238 3.0 10.0 0.00 0.00 0.00 35 1017.9
20230206122324 40 245 3.0 9.0 0.00 0.00 0.00 36 1017.9
20230206121823 40 273 4.0 8.0 0.00 0.00 0.00 37 1017.9
20230206121325 40 233 3.0 11.0 0.00 0.00 0.00 37 1017.9
20230206120820 40 246 4.0 11.0 0.00 0.00 0.00 37 1017.9
20230206120323 40 253 4.0 9.0 0.00 0.00 0.00 38 1017.8
20230206115820 39 297 3.0 11.0 0.00 0.00 0.00 39 1017.8
20230206115332 40 271 3.0 11.0 0.00 0.00 0.00 39 1017.8
20230206114830 39 263 4.0 11.0 0.00 0.00 0.00 40 1017.8
20230206114323 40 207 4.0 17.0 0.00 0.00 0.00 40 1017.7
20230206113821 40 238 6.0 17.0 0.00 0.00 0.00 40 1017.6
20230206113353 40 360 6.0 22.0 0.00 0.00 0.00 41 1017.7
20230206112830 40 360 7.0 22.0 0.00 0.00 0.00 41 1017.8
20230206112330 40 360 6.0 19.0 0.00 0.00 0.00 42 1017.7
20230206111826 40 360 10.0 20.0 0.00 0.00 0.00 42 1017.5
20230206111328 40 360 9.0 20.0 0.00 0.00 0.00 43 1017.4
20230206110830 40 360 10.0 21.0 0.00 0.00 0.00 43 1017.5
20230206110333 41 360 10.0 21.0 0.00 0.00 0.00 44 1017.2
20230206105830 41 360 11.0 20.0 0.00 0.00 0.00 45 1017.6
20230206105343 41 360 10.0 22.0 0.00 0.00 0.00 45 1017.2
20230206104821 42 360 10.0 22.0 0.00 0.00 0.00 46 1016.9
20230206104353 42 360 7.0 14.0 0.00 0.00 0.00 45 1016.8
20230206103829 42 360 8.0 14.0 0.00 0.00 0.00 44 1016.7
20230206103321 43 360 5.0 16.0 0.00 0.00 0.00 46 1017.0
20230206102819 43 275 7.0 19.0 0.00 0.00 0.00 47 1017.2
20230206102343 44 246 10.0 25.0 0.00 0.00 0.00 46 1017.1
20230206101818 44 308 11.0 25.0 0.00 0.00 0.00 45 1017.1
20230206101321 45 295 11.0 19.0 0.00 0.00 0.00 42 1016.8
20230206100819 45 202 7.0 15.0 0.00 0.00 0.00 41 1016.9
20230206100322 45 254 7.0 15.0 0.00 0.00 0.00 40 1016.6
20230206095823 45 255 7.0 14.0 0.00 0.00 0.00 40 1016.6
20230206095315 45 251 8.0 15.0 0.00 0.00 0.00 40 1016.4
20230206094833 45 269 8.0 15.0 0.00 0.00 0.00 40 1016.3
20230206094326 45 224 6.0 13.0 0.00 0.00 0.00 40 1016.5
20230206093843 46 248 6.0 15.0 0.00 0.00 0.00 38 1016.7
20230206093334 46 248 7.0 15.0 0.00 0.00 0.00 38 1016.8
20230206092851 46 264 5.0 13.0 0.00 0.00 0.00 38 1016.9
20230206092333 46 269 5.0 12.0 0.00 0.00 0.00 38 1016.9
20230206091831 46 255 4.0 12.0 0.00 0.00 0.00 37 1016.9
20230206091314 46 261 5.0 12.0 0.00 0.00 0.00 38 1016.9
20230206090832 46 263 6.0 14.0 0.00 0.00 0.00 37 1017.0
20230206090334 46 236 6.0 14.0 0.00 0.00 0.00 36 1016.9
20230206085831 46 277 7.0 13.0 0.00 0.00 0.00 37 1017.0
20230206085324 46 269 4.0 15.0 0.00 0.00 0.00 37 1016.9
20230206084822 46 258 7.0 18.0 0.00 0.00 0.00 37 1017.0
20230206084320 46 360 6.0 18.0 0.00 0.00 0.00 38 1017.0
20230206083816 45 360 6.0 16.0 0.00 0.00 0.00 38 1017.0
20230206083329 45 360 6.0 14.0 0.00 0.00 0.00 40 1017.3
20230206082826 45 360 3.0 14.0 0.00 0.00 0.00 40 1017.4
20230206082349 45 360 6.0 15.0 0.00 0.00 0.00 40 1017.5
20230206081825 45 360 5.0 16.0 0.00 0.00 0.00 41 1017.6
20230206081327 45 360 5.0 16.0 0.00 0.00 0.00 42 1017.7
20230206080825 44 360 4.0 10.0 0.00 0.00 0.00 42 1018.0
20230206080328 44 360 4.0 10.0 0.00 0.00 0.00 43 1018.0
20230206075824 44 360 5.0 15.0 0.00 0.00 0.00 44 1018.1
20230206075317 44 360 8.0 15.0 0.00 0.00 0.00 45 1018.1
20230206074835 43 360 7.0 16.0 0.00 0.00 0.00 48 1018.3
20230206074326 43 360 8.0 16.0 0.00 0.00 0.00 48 1018.4
20230206073823 43 360 7.0 15.0 0.00 0.00 0.00 48 1018.5
20230206073340 43 360 8.0 16.0 0.00 0.00 0.00 47 1018.5
20230206072817 43 360 8.0 16.0 0.00 0.00 0.00 46 1018.5
20230206072318 43 360 6.0 13.0 0.00 0.00 0.00 45 1018.7
20230206071815 44 360 6.0 14.0 0.00 0.00 0.00 44 1018.6
20230206071318 43 360 7.0 14.0 0.00 0.00 0.00 44 1018.7
20230206070816 43 360 8.0 14.0 0.00 0.00 0.00 44 1018.9
20230206070319 44 360 9.0 14.0 0.00 0.00 0.00 44 1018.8
20230206065815 44 360 8.0 14.0 0.00 0.00 0.00 43 1019.0
20230206065327 44 360 8.0 15.0 0.00 0.00 0.00 42 1019.0
20230206064825 44 360 8.0 15.0 0.00 0.00 0.00 41 1019.2
20230206064318 44 360 8.0 14.0 0.00 0.00 0.00 40 1019.2
20230206063855 44 360 6.0 14.0 0.00 0.00 0.00 40 1019.2
20230206063326 45 360 9.0 15.0 0.00 0.00 0.00 39 1019.4
20230206062827 45 360 8.0 14.0 0.00 0.00 0.00 39 1019.2
20230206062330 45 360 8.0 14.0 0.00 0.00 0.00 37 1019.2
20230206061827 45 360 4.0 11.0 0.00 0.00 0.00 35 1019.4
20230206061330 45 360 4.0 10.0 0.00 0.00 0.00 34 1019.3
20230206060826 46 360 3.0 10.0 0.00 0.00 0.00 32 1019.4
20230206060327 46 360 3.0 10.0 0.00 0.00 0.00 30 1019.4
20230206055824 46 360 5.0 12.0 0.00 0.00 0.00 28 1019.4
20230206055317 46 360 6.0 12.0 0.00 0.00 0.00 28 1019.4
20230206054814 46 360 6.0 10.0 0.00 0.00 0.00 28 1019.4
20230206054327 46 360 6.0 10.0 0.00 0.00 0.00 28 1019.3
20230206053825 46 360 4.0 10.0 0.00 0.00 0.00 28 1019.3
20230206053318 46 268 5.0 10.0 0.00 0.00 0.00 28 1019.3
20230206052835 46 269 4.0 10.0 0.00 0.00 0.00 28 1019.3
20230206052317 46 240 6.0 14.0 0.00 0.00 0.00 28 1019.4
20230206051854 46 252 4.0 14.0 0.00 0.00 0.00 29 1019.4
20230206051319 46 310 5.0 14.0 0.00 0.00 0.00 28 1019.3
20230206050817 47 252 6.0 11.0 0.00 0.00 0.00 27 1019.4
20230206050319 47 254 5.0 11.0 0.00 0.00 0.00 27 1019.4
20230206045816 46 276 6.0 10.0 0.00 0.00 0.00 27 1019.7
20230206045349 46 242 3.0 8.0 0.00 0.00 0.00 28 1019.7
20230206044825 46 256 3.0 9.0 0.00 0.00 0.00 28 1019.7
20230206044318 46 251 4.0 9.0 0.00 0.00 0.00 29 1019.8
20230206043835 44 260 3.0 8.0 0.00 0.00 0.00 31 1019.9
20230206043327 42 257 3.0 12.0 0.00 0.00 0.00 35 1019.9
20230206042825 38 360 2.0 12.0 0.00 0.00 0.00 43 1019.9
20230206042327 32 275 1.0 6.0 0.00 0.00 0.00 60 1019.9
20230206041824 29 13 1.0 4.0 0.00 0.00 0.00 73 1019.9
20230206041327 29 207 0.0 4.0 0.00 0.00 0.00 74 1020.0
20230206040825 29 207 0.0 4.0 0.00 0.00 0.00 74 1020.0
20230206040328 29 360 0.0 0.0 0.00 0.00 0.00 74 1020.1
20230206035829 29 360 0.0 0.0 0.00 0.00 0.00 74 1020.2
20230206035342 29 360 0.0 0.0 0.00 0.00 0.00 74 1020.2
20230206034819 29 360 0.0 0.0 0.00 0.00 0.00 74 1020.4
20230206034331 29 360 0.0 0.0 0.00 0.00 0.00 74 1020.3
20230206033828 29 360 0.0 0.0 0.00 0.00 0.00 74 1020.4
20230206033321 29 360 0.0 0.0 0.00 0.00 0.00 74 1020.4
20230206032819 29 360 0.0 0.0 0.00 0.00 0.00 73 1020.4
20230206032321 29 360 0.0 0.0 0.00 0.00 0.00 73 1020.7
20230206031818 29 360 0.0 0.0 0.00 0.00 0.00 73 1020.6
20230206031321 29 360 0.0 0.0 0.00 0.00 0.00 73 1020.6
20230206030819 29 360 0.0 0.0 0.00 0.00 0.00 73 1020.6
20230206030320 30 360 0.0 0.0 0.00 0.00 0.00 73 1020.7
20230206025818 30 360 0.0 0.0 0.00 0.00 0.00 72 1020.7
20230206025315 30 360 0.0 0.0 0.00 0.00 0.00 72 1020.8
20230206024832 30 360 0.0 0.0 0.00 0.00 0.00 72 1020.9
20230206024325 30 360 0.0 0.0 0.00 0.00 0.00 71 1021.0
20230206023822 31 360 0.0 0.0 0.00 0.00 0.00 71 1021.1
20230206023315 31 360 0.0 0.0 0.00 0.00 0.00 71 1021.1
20230206022853 31 360 0.0 0.0 0.00 0.00 0.00 70 1021.0
20230206022315 31 360 0.0 0.0 0.00 0.00 0.00 70 1021.1
20230206021832 32 360 0.0 0.0 0.00 0.00 0.00 70 1021.3
20230206021315 32 360 0.0 0.0 0.00 0.00 0.00 69 1021.3
20230206020833 32 360 0.0 0.0 0.00 0.00 0.00 68 1021.4
20230206020316 33 360 0.0 0.0 0.00 0.00 0.00 68 1021.3
20230206015833 33 360 0.0 0.0 0.00 0.00 0.00 68 1021.3
20230206015326 33 360 0.0 0.0 0.00 0.00 0.00 67 1021.4
20230206014823 33 360 0.0 0.0 0.00 0.00 0.00 67 1021.3
20230206014318 34 360 0.0 0.0 0.00 0.00 0.00 66 1021.4
20230206013815 34 360 0.0 0.0 0.00 0.00 0.00 65 1021.2
20230206013328 34 360 0.0 0.0 0.00 0.00 0.00 65 1021.4
20230206012826 35 360 0.0 0.0 0.00 0.00 0.00 64 1021.3
20230206012329 35 360 0.0 0.0 0.00 0.00 0.00 63 1021.3
20230206011825 36 360 0.0 0.0 0.00 0.00 0.00 63 1021.1
20230206011328 36 360 0.0 0.0 0.00 0.00 0.00 62 1021.3
20230206010826 36 360 0.0 0.0 0.00 0.00 0.00 61 1021.3
20230206010349 36 360 0.0 0.0 0.00 0.00 0.00 60 1021.2
20230206005824 37 360 0.0 0.0 0.00 0.00 0.00 59 1021.2
20230206005317 37 360 0.0 0.0 0.00 0.00 0.00 58 1021.1
20230206004814 38 360 0.0 0.0 0.00 0.00 0.00 57 1021.1
20230206004331 39 134 0.0 0.0 0.00 0.00 0.00 56 1021.3
20230206003829 39 360 0.0 0.0 0.00 0.00 0.00 55 1021.2
20230206003342 40 131 0.0 3.0 0.00 0.00 0.00 54 1021.2
20230206002817 40 360 0.0 3.0 0.00 0.00 0.00 53 1021.1
20230206002340 41 123 0.0 0.0 0.00 0.00 0.00 52 1020.8
20230206001817 42 360 0.0 0.0 0.00 0.00 0.00 51 1020.8
20230206001320 42 125 0.0 1.0 0.00 0.00 0.00 50 1020.8
20230206000817 43 123 0.0 1.0 0.00 0.00 0.00 49 1020.9
20230206000340 43 360 0.0 0.0 0.00 0.00 0.00 47 1020.9
20230205235818 44 360 0.0 3.0 0.00 0.00 0.00 46 1020.9
20230205235330 44 360 0.0 3.0 0.00 0.00 0.00 45 1020.9
20230205234827 45 124 0.0 2.0 0.00 0.00 0.00 44 1020.9
20230205234321 46 123 0.0 3.0 0.00 0.00 0.00 44 1020.9
20230205233818 46 123 0.0 3.0 0.00 0.00 0.00 44 1021.1
20230205233330 47 125 1.0 3.0 0.00 0.00 0.00 42 1021.2
20230205232828 47 122 0.0 2.0 0.00 0.00 0.00 42 1021.3
20230205232330 48 122 1.0 2.0 0.00 0.00 0.00 42 1021.2
20230205231827 48 122 0.0 1.0 0.00 0.00 0.00 42 1021.2
20230205231314 48 122 0.0 3.0 0.00 0.00 0.00 41 1021.4
20230205230832 47 122 0.0 3.0 0.00 0.00 0.00 42 1021.3
20230205230315 48 123 1.0 3.0 0.00 0.00 0.00 41 1021.6
20230205225832 48 122 0.0 4.0 0.00 0.00 0.00 42 1021.4
20230205225325 48 128 1.0 4.0 0.00 0.00 0.00 41 1021.4
20230205224822 49 123 1.0 4.0 0.00 0.00 0.00 40 1021.5
20230205224314 49 92 1.0 3.0 0.00 0.00 0.00 39 1021.7
20230205223831 49 72 1.0 2.0 0.00 0.00 0.00 38 1021.8
20230205223322 49 65 0.0 2.0 0.00 0.00 0.00 39 1021.7
20230205222820 49 65 0.0 6.0 0.00 0.00 0.00 39 1022.1
20230205222343 49 72 1.0 6.0 0.00 0.00 0.00 40 1022.1
20230205221819 49 5 0.0 3.0 0.00 0.00 0.00 40 1022.0
20230205221323 49 355 0.0 3.0 0.00 0.00 0.00 42 1022.2
20230205220823 48 13 1.0 3.0 0.00 0.00 0.00 43 1022.3
20230205220326 48 128 0.0 2.0 0.00 0.00 0.00 43 1022.3
20230205215823 48 129 1.0 5.0 0.00 0.00 0.00 41 1022.5
20230205215315 48 134 0.0 5.0 0.00 0.00 0.00 41 1022.4
20230205214833 48 93 1.0 3.0 0.00 0.00 0.00 41 1022.5
20230205214346 48 114 0.0 3.0 0.00 0.00 0.00 41 1022.5
20230205213821 48 115 0.0 3.0 0.00 0.00 0.00 42 1022.7
20230205213334 47 78 0.0 3.0 0.00 0.00 0.00 42 1022.8
20230205212831 48 40 0.0 3.0 0.00 0.00 0.00 42 1022.9
20230205212313 48 111 1.0 3.0 0.00 0.00 0.00 43 1023.0
20230205211850 48 90 0.0 3.0 0.00 0.00 0.00 42 1023.1
20230205211332 48 90 0.0 3.0 0.00 0.00 0.00 42 1022.9
20230205210829 48 78 0.0 4.0 0.00 0.00 0.00 42 1023.2
20230205210332 48 93 0.0 4.0 0.00 0.00 0.00 42 1023.1
20230205205814 49 129 0.0 4.0 0.00 0.00 0.00 43 1023.2
20230205205347 49 119 1.0 4.0 0.00 0.00 0.00 40 1023.4
20230205204823 49 134 0.0 4.0 0.00 0.00 0.00 42 1023.4
20230205204335 49 128 0.0 4.0 0.00 0.00 0.00 43 1023.6
20230205203832 49 149 0.0 8.0 0.00 0.00 0.00 42 1023.6
20230205203325 49 134 1.0 8.0 0.00 0.00 0.00 41 1023.7
20230205202822 49 72 1.0 3.0 0.00 0.00 0.00 40 1023.9
20230205202326 49 126 1.0 3.0 0.00 0.00 0.00 40 1024.1
20230205201822 48 160 1.0 3.0 0.00 0.00 0.00 35 1024.2
20230205201345 48 173 1.0 5.0 0.00 0.00 0.00 36 1024.3
20230205200822 48 77 1.0 5.0 0.00 0.00 0.00 36 1024.3
20230205200345 48 90 1.0 3.0 0.00 0.00 0.00 35 1024.5
20230205195821 47 86 0.0 3.0 0.00 0.00 0.00 34 1024.8
20230205195314 47 13 0.0 9.0 0.00 0.00 0.00 37 1024.9
20230205194832 47 348 1.0 9.0 0.00 0.00 0.00 38 1025.0